Theta_e
309 304 302 305 307 306 307 305 305 309 312 310 310 311 312 315 316 315 316 317 319 321 323 325 326 329 330 332 332 336 337 340 338 338 334 334 335 334 335 334 333 333 332 334
304 302 307 309 308 306 306 304 305 309 311 310 310 309 312 314 315 315 316 317 319 321 321 323 326 328 330 331 331 335 337 339 340 338 340 338 334 335 335 334 334 335 333 334
300 303 308 307 306 305 305 304 306 305 309 311 309 307 310 313 315 315 316 318 320 321 320 322 323 326 328 329 329 334 337 339 341 340 339 338 337 331 332 334 333 334 334 334
301 305 305 306 305 306 302 308 308 307 305 300 309 298 307 310 311 312 314 316 317 321 322 322 323 326 328 327 329 334 337 339 339 340 338 334 328 329 333 333 332 331 334 334
300 301 301 304 305 308 305 310 308 308 305 304 303 300 303 310 308 310 313 316 319 322 322 321 323 325 327 328 330 334 338 338 341 338 339 336 332 334 334 330 331 332 334 334
302 308 306 306 310 310 311 308 308 307 305 298 302 301 301 305 308 310 311 315 320 321 322 323 324 327 326 326 329 334 336 337 340 336 337 336 333 330 330 328 330 332 333 334
302 302 307 310 306 310 308 307 298 295 295 294 303 300 304 310 311 310 311 314 320 321 321 321 322 323 324 324 328 330 334 333 337 336 336 334 334 331 330 330 327 328 331 332
297 295 303 308 307 305 307 307 299 291 293 295 304 298 303 311 313 313 313 319 321 321 321 321 322 323 321 324 327 329 331 330 334 334 335 335 337 332 332 331 332 331 329 332
298 298 307 307 310 309 306 302 308 301 302 297 300 305 311 311 310 311 314 318 321 321 321 321 323 323 322 324 327 330 331 331 333 333 336 336 336 333 331 332 334 330 331 333
304 299 306 306 310 310 309 311 301 301 293 291 297 300 301 307 307 311 315 318 320 321 320 321 322 324 323 325 328 331 331 330 331 333 334 333 334 335 334 332 328 329 329 331
308 306 304 307 305 304 306 304 305 305 301 294 293 299 315 310 311 314 317 319 320 319 319 320 321 323 322 324 324 329 329 328 330 332 332 334 334 334 334 331 333 331 327 331
308 306 301 303 309 311 309 306 307 299 299 301 301 300 314 315 313 315 317 319 319 320 320 320 321 322 320 322 324 327 329 325 328 330 330 332 334 335 336 332 334 333 327 328
308 303 299 301 306 309 306 307 308 309 309 302 296 299 314 314 313 315 315 319 319 320 320 320 321 320 318 320 323 324 327 324 324 326 328 331 334 334 334 333 335 335 329 328
312 305 301 299 303 307 304 306 306 306 301 301 301 303 309 312 311 313 316 320 319 320 320 320 321 320 318 321 322 323 325 325 323 322 327 328 333 333 335 333 335 332 335 332
311 301 305 306 306 307 306 305 305 304 305 301 304 304 308 313 313 314 318 320 319 318 319 320 321 321 318 321 322 323 325 324 323 320 323 328 332 333 334 334 333 335 334 334
313 302 305 302 304 306 304 306 305 305 305 305 305 306 314 316 316 315 315 318 318 319 319 320 322 322 319 321 321 323 324 323 322 321 321 325 326 327 334 335 332 332 332 331
309 306 303 298 304 304 300 305 305 306 308 307 303 309 314 312 313 315 317 319 320 320 321 320 322 323 322 321 323 323 324 324 321 321 321 321 324 324 329 331 332 332 333 333
307 308 305 299 303 293 304 311 309 308 309 310 310 311 313 314 317 316 317 319 321 322 322 322 323 325 325 323 323 325 325 323 320 320 320 320 321 322 325 329 330 334 334 333
310 309 303 298 297 302 304 307 307 307 307 312 309 311 312 314 316 317 319 320 324 325 326 326 326 327 326 324 324 324 323 323 320 320 321 319 319 322 324 325 330 333 334 333
307 311 302 301 296 293 304 309 312 311 302 314 314 314 313 314 307 311 320 321 323 327 327 327 327 328 326 326 325 324 323 323 320 320 321 320 318 321 324 328 330 333 334 332
299 304 299 300 299 301 309 310 313 300 304 315 316 316 317 314 316 324 326 323 326 327 328 330 328 326 327 326 325 324 323 322 323 322 322 323 321 323 326 331 331 332 332 330
299 299 300 301 297 295 312 310 305 315 324 322 318 318 317 320 322 323 322 324 324 326 326 328 328 327 329 327 325 323 323 326 324 323 322 323 325 320 325 329 330 331 330 331
294 304 302 303 303 317 318 316 323 324 320 318 320 319 320 318 319 320 321 324 325 325 326 327 329 329 330 327 325 323 326 327 324 323 324 325 324 323 325 327 328 327 329 326
302 306 300 305 309 311 313 316 320 319 320 321 321 322 321 319 320 320 321 323 324 326 327 329 329 328 328 328 327 326 327 326 324 324 326 326 323 322 324 325 326 323 323 322
299 301 302 301 308 310 313 315 316 320 319 320 321 320 321 322 321 321 321 323 324 326 329 329 329 328 329 330 328 328 328 325 324 325 326 326 324 321 324 324 324 322 324 320
300 298 298 300 308 305 312 315 314 319 318 321 321 320 323 322 322 322 322 326 326 326 328 328 330 331 330 331 330 329 329 327 326 325 325 324 324 322 323 322 323 297 304 301
Wind_Speed
20 19 23 26 26 26 25 25 22 20 20 12 9 22 17 11 15 18 13 10 10 9 12 12 11 9 8 5 4 4 1 1 3 2 3 3 3 2 2 4 5 6 5 5
21 24 25 26 25 27 28 25 22 20 14 11 13 13 12 16 19 18 13 10 9 10 14 14 12 9 8 7 5 3 2 2 3 3 2 2 3 2 1 3 3 3 5 4
29 25 27 28 26 28 26 24 20 21 15 16 8 14 18 18 17 12 8 7 2 13 14 15 14 11 9 6 6 5 3 1 2 4 3 3 2 1 0 3 3 4 4 3
30 26 28 29 28 25 24 25 23 19 16 12 14 13 13 15 17 7 7 11 12 15 13 15 14 12 10 8 6 5 4 1 2 5 4 5 3 2 1 1 3 3 3 4
29 30 30 30 29 28 23 25 23 18 15 15 15 13 13 15 16 9 5 1 11 14 14 15 14 13 11 8 7 5 5 2 1 5 4 3 4 2 1 3 3 3 3 1
29 26 29 32 25 26 25 23 20 13 13 14 16 15 13 15 3 7 2 6 12 13 13 14 13 13 9 8 8 6 5 2 2 4 3 5 3 3 3 3 3 3 3 3
26 31 30 29 30 24 25 19 11 12 13 11 16 17 15 13 6 2 5 3 10 12 14 14 14 12 10 9 8 6 6 4 2 5 4 7 5 5 5 4 4 4 4 3
23 24 34 27 30 25 25 17 13 16 12 16 11 15 7 2 7 6 2 7 8 10 13 13 13 12 11 10 9 8 6 6 3 5 4 8 5 4 4 3 2 4 3 4
23 29 22 32 27 26 22 19 20 18 15 13 4 13 10 12 9 7 8 7 10 10 13 14 13 11 11 10 8 5 6 5 3 6 3 4 6 6 5 4 3 3 4 5
24 18 28 31 26 28 23 19 18 12 17 16 14 14 6 13 9 10 11 9 10 13 14 13 12 11 9 10 8 6 5 5 4 5 4 4 5 4 4 5 3 6 6 5
24 18 19 24 30 22 19 20 20 13 15 13 12 11 5 15 10 9 11 13 12 15 14 13 12 11 10 10 10 6 6 6 6 4 5 2 5 4 3 6 5 7 5 7
32 11 17 26 26 26 23 23 18 11 17 12 12 6 9 7 8 8 14 15 15 14 14 13 13 12 11 10 11 9 6 7 7 6 6 3 4 5 3 6 5 7 7 6
25 20 14 20 22 26 24 21 21 16 9 15 12 11 12 11 8 9 7 16 16 14 14 13 13 13 11 11 11 10 8 7 8 7 8 4 5 5 4 5 6 5 7 5
22 19 24 15 17 21 26 25 23 20 13 13 15 13 14 14 11 9 9 15 17 14 14 13 12 13 12 12 11 11 9 8 7 7 8 6 4 6 3 5 3 7 5 8
22 27 23 25 23 27 27 27 25 24 20 19 17 17 11 14 11 11 12 12 15 17 16 14 13 12 13 12 11 11 10 10 8 8 9 6 5 5 5 5 4 5 7 6
20 23 24 24 28 26 25 28 27 27 25 22 21 18 14 10 16 15 11 15 14 16 17 16 15 13 14 14 11 11 10 10 9 7 11 8 7 6 5 4 5 4 5 6
15 17 21 23 23 25 25 27 26 21 21 22 21 16 13 8 8 7 12 14 13 14 14 18 17 14 12 13 12 11 10 11 10 8 10 10 8 8 6 6 5 4 5 5
17 18 17 18 20 28 15 19 22 20 20 19 18 17 17 13 9 13 13 12 14 13 14 17 15 13 13 13 13 11 11 12 11 10 11 11 10 9 8 7 6 5 4 4
16 15 11 16 19 14 23 24 22 18 22 20 19 17 14 15 15 12 14 11 12 13 13 14 15 13 14 13 13 12 12 13 12 12 11 12 11 10 8 7 8 6 4 4
18 13 11 13 19 25 16 21 20 16 17 16 17 15 13 15 11 9 11 12 10 14 12 14 16 15 15 14 14 13 13 13 13 12 11 12 12 10 9 7 8 6 5 5
13 13 16 13 13 15 22 23 18 20 8 13 15 16 15 13 8 8 8 11 10 15 13 15 18 18 17 15 15 14 13 14 13 12 12 12 10 11 9 7 7 6 6 6
12 10 12 14 10 13 15 20 23 8 6 7 17 16 13 10 8 9 6 12 13 14 14 13 15 16 17 17 15 15 13 12 13 13 13 12 11 10 9 9 8 7 6 5
10 10 9 12 11 8 8 12 8 10 7 11 13 14 13 13 14 12 9 7 9 12 11 13 15 16 16 18 17 16 13 13 13 12 11 12 13 9 11 10 9 7 6 5
8 15 10 11 10 12 12 14 8 13 9 5 8 10 12 13 14 15 12 10 9 9 11 11 14 17 17 17 17 15 14 14 14 11 10 12 12 10 12 9 8 8 8 7
5 14 9 15 13 9 6 6 3 4 8 9 5 8 8 8 11 13 11 11 10 10 11 11 13 15 17 17 17 16 16 16 12 11 10 12 11 11 10 10 10 10 9 10
10 1 3 9 16 13 12 3 11 16 15 13 8 2 7 12 10 11 9 10 10 11 14 12 11 14 16 17 16 17 17 17 13 11 10 11 11 10 10 9 8 7 3 12
Wind_Direction
227 221 223 224 222 236 244 249 241 243 229 271 223 236 248 289 287 287 274 260 202 193 152 150 155 159 147 168 198 218 310 17 300 1 337 295 76 54 360 303 314 263 247 254
218 224 228 235 229 231 242 250 262 273 281 260 246 259 289 281 268 266 273 275 213 150 143 155 150 162 157 186 197 188 210 57 348 357 351 348 350 68 21 314 330 327 219 260
216 219 220 233 223 229 232 242 250 261 276 270 258 262 253 271 258 227 233 243 188 151 159 154 157 168 169 189 171 195 137 229 16 58 291 357 334 5 327 334 6 338 187 168
226 224 227 224 232 219 233 233 241 259 266 266 291 294 296 300 279 237 265 219 189 150 156 155 160 168 177 186 169 144 145 261 102 45 38 20 352 349 19 238 22 3 16 48
223 221 225 226 220 226 228 235 231 233 250 258 264 268 280 279 281 215 212 246 129 143 159 158 163 167 177 169 152 163 149 179 179 117 15 80 33 16 346 5 49 31 39 31
229 222 224 231 222 221 229 235 243 242 255 247 243 253 267 268 342 108 132 129 144 147 151 151 159 159 169 156 155 160 166 166 272 78 16 29 41 40 75 49 70 25 50 30
222 229 227 232 226 213 224 225 220 226 236 254 254 250 254 260 300 107 58 18 129 142 145 150 160 163 159 171 152 170 165 167 221 81 47 52 61 87 64 42 40 39 41 51
219 219 220 213 229 217 207 208 233 222 225 244 317 242 266 256 140 113 137 71 114 141 142 155 164 163 162 165 156 209 163 142 191 90 62 76 80 86 92 69 62 61 54 69
206 228 208 225 212 224 199 205 221 249 256 263 209 237 264 157 159 195 158 129 135 148 147 159 165 162 164 157 158 192 173 152 156 111 110 92 87 82 82 55 41 35 86 65
233 219 229 202 214 216 222 201 208 218 239 259 277 259 253 148 189 167 135 140 143 145 156 164 163 159 163 154 155 176 158 152 146 133 164 110 122 110 132 131 99 77 63 65
227 246 212 212 207 198 198 226 200 219 227 229 248 269 183 149 192 134 149 137 157 154 167 164 163 157 166 158 162 175 188 157 136 150 103 135 121 109 124 97 102 115 100 87
212 225 243 214 199 202 200 214 205 208 219 240 252 244 97 106 139 146 126 146 165 166 169 167 164 159 172 169 160 173 194 158 157 155 134 136 111 98 81 97 98 123 118 107
196 226 238 239 207 191 206 210 220 206 216 219 242 240 159 168 174 172 184 150 158 170 170 168 164 165 177 172 168 169 187 176 163 171 130 143 127 104 89 81 123 115 125 119
185 218 221 229 207 176 189 213 214 212 210 223 230 244 156 159 175 172 195 145 155 173 170 171 171 170 179 173 176 169 181 169 163 166 140 146 144 125 153 127 132 121 127 135
188 208 223 230 234 194 193 203 215 215 218 217 223 245 237 173 176 198 191 159 160 169 174 174 180 172 177 171 179 172 177 163 161 168 142 149 156 153 172 158 134 128 143 118
190 207 213 224 229 244 199 199 208 225 216 214 233 236 224 234 187 183 196 175 174 172 182 178 182 177 178 171 182 178 173 156 159 175 144 158 172 170 151 122 114 112 100 104
225 205 200 224 218 235 216 199 199 217 226 209 218 224 239 223 182 210 185 182 174 174 182 177 182 182 175 172 180 171 171 154 161 177 153 165 177 167 151 153 153 122 110 115
273 209 198 210 224 224 230 201 203 213 227 225 227 216 215 232 229 190 220 188 168 174 173 176 178 176 167 168 173 166 174 162 170 185 166 165 178 170 166 165 151 122 110 102
255 225 194 204 220 227 216 229 204 199 210 215 219 225 218 223 222 229 222 192 181 166 167 175 175 169 161 168 170 171 180 173 179 186 173 168 180 164 171 170 143 139 146 130
241 235 187 206 213 219 218 211 226 228 220 203 204 210 206 228 221 231 201 193 196 164 171 168 169 162 162 167 168 175 186 178 186 187 184 169 172 168 168 159 148 151 168 162
218 192 191 221 198 219 215 230 198 213 224 194 205 197 199 214 225 230 216 178 176 165 172 164 165 169 165 164 167 180 188 185 187 189 185 166 162 158 164 155 156 163 179 174
200 203 193 207 218 224 219 210 218 169 204 244 196 188 196 210 220 232 234 166 188 169 167 167 163 166 165 165 168 184 191 185 191 193 184 166 149 164 161 156 161 169 190 169
295 203 212 203 214 263 283 325 139 126 173 214 196 183 194 204 209 220 215 173 168 172 165 175 161 159 165 171 174 184 189 187 192 196 179 157 151 164 153 161 165 174 193 193
280 279 336 303 210 218 246 281 169 178 188 158 152 183 190 198 201 211 207 186 170 177 178 164 160 161 171 178 178 180 186 187 194 192 172 155 156 162 159 165 175 187 186 207
293 343 327 314 280 235 207 309 116 218 184 162 145 197 183 201 195 193 200 179 170 187 161 170 176 169 173 178 181 179 185 187 198 184 171 162 164 167 165 178 182 196 186 201
258 209 267 259 17 339 284 212 309 202 215 131 153 226 277 189 204 184 188 159 176 184 171 173 176 170 172 176 185 184 190 185 190 185 177 172 168 175 174 182 186 57 285 172